This is the latest recevied weather packets stored in our database for station/object KE8URB. If no packets are shown the sender has not sent any weather packets the latest 10 day(s).
| Time | Temp. | Humidity | Pressure | Rain* | Wind** | Luminosity | Snow |
|---|---|---|---|---|---|---|---|
| 1788115211 | 26.67° C | 70% | 1021.4 hPa | 0 mm | - | 127 W/m² | - |
| 1788114911 | 26.67° C | 73% | 1021.4 hPa | 0 mm | - | 117 W/m² | - |
| 1788114608 | 26.67° C | 72% | 1021.5 hPa | 0 mm | - | 121 W/m² | - |
| 1788114302 | 27.22° C | 71% | 1021.5 hPa | 0 mm | - | 195 W/m² | - |
| 1788113999 | 27.22° C | 71% | 1021.5 hPa | 0 mm | - | 278 W/m² | - |
| 1788113695 | 27.22° C | 75% | 1021.4 hPa | 0 mm | - | 358 W/m² | - |
| 1788113394 | 26.67° C | 75% | 1021.5 hPa | 0 mm | - | 158 W/m² | - |
| 1788113094 | 26.67° C | 74% | 1021.6 hPa | 0 mm | - | 151 W/m² | - |
| 1788112793 | 26.67° C | 74% | 1021.6 hPa | 0 mm | - | 85 W/m² | - |
| 1788112493 | 27.22° C | 74% | 1021.4 hPa | 0 mm | - | 144 W/m² | - |
| 1788112188 | 26.67° C | 75% | 1021.6 hPa | 0 mm | - | 155 W/m² | - |
| 1788111884 | 27.22° C | 72% | 1021.6 hPa | 0 mm | - | 152 W/m² | - |
| 1788111578 | 27.22° C | 74% | 1021.7 hPa | 0 mm | - | 151 W/m² | - |
| 1788111274 | 27.22° C | 73% | 1021.6 hPa | 0 mm | - | 131 W/m² | - |
| 1788110969 | 27.22° C | 75% | 1021.8 hPa | 0 mm | - | 140 W/m² | - |
| 1788110666 | 26.67° C | 71% | 1021.7 hPa | 0 mm | - | 148 W/m² | - |
| 1788110367 | 26.67° C | 73% | 1021.8 hPa | 0 mm | - | 150 W/m² | - |
| 1788110062 | 26.67° C | 73% | 1021.9 hPa | 0 mm | - | 119 W/m² | - |
| 1788109763 | 27.22° C | 71% | 1021.9 hPa | 0 mm | - | 128 W/m² | - |
| 1788109462 | 26.67° C | 72% | 1022.1 hPa | 0 mm | - | 140 W/m² | - |
| 1788109160 | 26.67° C | 75% | 1022.2 hPa | 0 mm | - | 151 W/m² | - |
| 1788108857 | 26.67° C | 76% | 1022.1 hPa | 0 mm | - | 151 W/m² | - |
| 1788108553 | 26.67° C | 75% | 1022.2 hPa | 0 mm | - | 143 W/m² | - |
| 1788108248 | 26.67° C | 75% | 1022.3 hPa | 0 mm | - | 143 W/m² | - |
| 1788107945 | 26.67° C | 75% | 1022.2 hPa | 0 mm | - | 131 W/m² | - |
* Rain latest hour (hover to see other rain measurements)
** Current wind speed in m/s (hover to see current wind gust speed)